Sisseton, SD

8:53 PM CST on January 18, 2017 (GMT -0600)
Sisseton

Weather History for K8D3 - April, 2014

Change the Weather History Date:

Saturday, April 5, 2014

  Actual Average Record
Temperature  
Mean Temperature 40 °F 39 °F  
Max Temperature 57 °F 50 °F 83 °F (1991)
Min Temperature 23 °F 28 °F 7 °F (1979)
Degree Days  
Heating Degree Days 25 26  
Month to date heating degree days 187 134  
Since 1 July heating degree days 8203 7476  
Cooling Degree Days 0 0  
Month to date cooling degree days 0 0  
Year to date cooling degree days 0 0  
Moisture  
Dew Point 32 °F    
Average Humidity 75    
Maximum Humidity 96    
Minimum Humidity 54    
Precipitation  
Precipitation 0.00 in 0.04 in 1.65 in (1997)
Month to date precipitation 0.42 0.18  
Year to date precipitation 1.88 2.16  
Snow  
Snow 0.00 in - - ()
Month to date snowfall 4.7  
Since 1 July snowfall 36.1  
Snow Depth 6.00 in    
Sea Level Pressure  
Sea Level Pressure 29.93 in    
Wind  
Wind Speed 11 mph (South)    
Max Wind Speed 23 mph    
Max Gust Speed 28 mph    
T = Trace of Precipitation, MM = Missing Value Source: NWS Daily Summary

Daily Weather History Graph

Daily Weather History Graph

Search for Another Location

Airport or City:

Trip Planner

Search our weather history database for the weather conditions in past years. The results will help you decide how hot, cold, wet, or windy it might be!

Date:

Astronomy

Apr. 05, 2014 Rise Set
Actual Time 7:00 AM CDT 8:01 PM CDT
Civil Twilight 6:30 AM CDT 8:31 PM CDT
Nautical Twilight 5:54 AM CDT 9:08 PM CDT
Astronomical Twilight 5:15 AM CDT 9:46 PM CDT
Moon 10:58 AM CDT (4/5) 1:22 AM CDT (4/5)
Length of Visible Light 14h 01m
Length of Day
13h 01m
Waxing Crescent, 34% of the Moon is Illuminated
Apr 5
Waxing Crescent
Apr 7
First Quarter
Apr 15
Full
Apr 22
Last Quarter
Apr 29
New

Hourly Weather History & Observations

Time (CDT) Temp. Windchill Dew Point Humidity Pressure Visibility Wind Dir Wind Speed Gust Speed Precip Events Conditions
12:56 AM 23.0 °F 14.7 °F 21.0 °F 92% 30.10 in - South 6.9 mph - N/A   Unknown
1:56 AM 25.0 °F 15.5 °F 23.0 °F 92% 30.09 in - South 9.2 mph - N/A   Unknown
2:56 AM 25.0 °F 15.5 °F 23.0 °F 92% 30.06 in - South 9.2 mph - N/A   Unknown
3:56 AM 24.1 °F 15.2 °F 21.9 °F 91% 30.04 in - South 8.1 mph - N/A   Unknown
4:56 AM 24.1 °F 15.2 °F 21.9 °F 91% 30.03 in - SSE 8.1 mph - N/A   Unknown
5:56 AM 24.1 °F 16.0 °F 21.9 °F 91% 30.02 in - SSE 6.9 mph - N/A   Unknown
6:56 AM 34.0 °F 23.8 °F 26.1 °F 73% 29.98 in - South 16.1 mph 24.2 mph N/A   Unknown
7:56 AM 34.0 °F 25.5 °F 27.0 °F 75% 29.98 in - South 11.5 mph - N/A   Unknown
8:56 AM 39.0 °F 29.9 °F 28.9 °F 67% 29.96 in - South 17.3 mph - N/A   Unknown
9:56 AM 39.9 °F 32.1 °F 32.0 °F 73% 29.94 in - South 13.8 mph - N/A   Unknown
10:56 AM 45.0 °F 37.6 °F 33.1 °F 63% 29.93 in - SSW 17.3 mph - N/A   Unknown
11:56 AM 46.9 °F - 34.0 °F 61% 29.92 in - SSW 17.3 mph - N/A   Unknown
12:56 PM 46.9 °F - 34.0 °F 61% 29.91 in - SSW 10.4 mph - N/A   Unknown
1:56 PM 52.0 °F - 37.0 °F 57% 29.88 in - SSW 12.7 mph - N/A   Unknown
2:56 PM 55.0 °F - 39.9 °F 57% 29.86 in - SSW 17.3 mph - N/A   Unknown
3:56 PM 53.1 °F - 37.0 °F 55% 29.85 in - SW 15.0 mph - N/A   Unknown
4:56 PM 55.9 °F - 39.0 °F 53% 29.83 in - SW 12.7 mph - N/A   Unknown
5:56 PM 55.0 °F - 39.9 °F 57% 29.83 in - SSW 9.2 mph - N/A   Unknown
6:56 PM 54.0 °F - 42.1 °F 64% 29.83 in - South 9.2 mph - N/A   Unknown
7:56 PM 46.9 °F - 39.0 °F 74% 29.82 in - SSE 9.2 mph - N/A   Unknown
8:56 PM 42.1 °F 38.4 °F 37.9 °F 85% 29.84 in - South 5.8 mph - N/A   Unknown
9:56 PM 36.0 °F 31.1 °F 34.0 °F 93% 29.86 in - NNW 5.8 mph - N/A   Unknown
10:56 PM 35.1 °F 28.6 °F 34.0 °F 96% 29.85 in - SE 8.1 mph - N/A   Unknown
11:56 PM 37.0 °F 32.4 °F 35.1 °F 93% 29.83 in - South 5.8 mph - N/A   Unknown